Погода в Охримовцах

Украина / Хмельницкая область     49°06′18″N   27°16′28″E
темп.,
°C
ветер,
м/с
пор.,
м/с
влажн.,
%
обл.,
%
осадки,
мм/ч
давл.,
гПа
погр.,
м
5 августа, чт
чт500:00+16в34915 3.6 101546
03:00+16вюв3491100 3.6 101453
06:00+16ююв1190100 0.0 101311
09:00+21ююв2377100 0.0 1012212
12:00+25ююв566127 0.0 1011885
15:00+28ююв565177 0.1 10091695
18:00+28юв57555 0.0 10061575
21:00+24ююв51366100 0.1 1004385
6 августа, пт
пт600:00+18ююв6129299 10.6 1005243
03:00+18юв3109736 12.0 1003252
06:00+17ююз2398100 0.4 100276
09:00+21з247949 0.4 1003354
12:00+24сз335881 0.0 10031327
15:00+25зсз335351 0.2 10031628
18:00+19зсз368992 5.1 1004230
21:00+17сз51090100 5.6 1006394
7 августа, сб
сб700:00+14зсз4119457 0.0 1008319
03:00+13зсз499718 0.0 1009308
06:00+12сз38971 0.0 1011218
09:00+16сз35760 0.0 1012437
12:00+21зсз45570 0.0 10121232
15:00+24сз45450 0.0 10121616
18:00+24ссз244813 0.0 10131711
21:00+19юв22645 0.0 101411
8 августа, вс
вс800:00+17ю22710 0.0 101511
03:00+15ю22765 0.0 101611
06:00+15ююв22785 0.0 101616
09:00+21ююв346352 0.0 1016270
12:00+25ююв56510 0.0 10161034
15:00+27ю55470 0.0 10161337
18:00+26ююв45520 0.0 10151049
21:00+21ююв46682 0.0 101684
9 августа, пн
пн900:00+19юв477011 0.0 1017111
03:00+18юв49705 0.0 1016149
06:00+17юв411695 0.0 1016196
09:00+22ююз2458100 0.0 1017322
12:00+27ююв464898 0.0 1016802
15:00+29ююз344518 0.0 10161263
18:00+28з335165 0.0 10161265
21:00+22с6107997 0.3 1018289